Preview of NWS' New Version of Forecast
This preview is not operational and should not be used for support decisions.

Regional Weather Roundup (RWR)

Issued by National Weather Service (NWS)

                            
000
ASCA42 TJSJ 200610
RWRPR 
PUERTO RICO/U.S. VIRGIN ISLANDS HOURLY WEATHER ROUNDUP
NATIONAL WEATHER SERVICE SAN JUAN PR
200 AM AST TUE AUG 20 2019

PRZ001>002-007>008-010-200700-
PUERTO RICO
  
CITY           SKY/WX    TMP DP  RH WIND       PRES   REMARKS
SAN JUAN LMM   PTCLDY    81  79  94 E3        30.01F                  
CEIBA          PTCLDY    82  79  89 NE5       30.02F HX  93           
$$

VIZ001>002-200700-
U.S. VIRGIN ISLANDS
  
CITY           SKY/WX    TMP DP  RH WIND       PRES   REMARKS
CHARLOTTE AMA  CLEAR     81  77  89 E7        30.00F                  
CHRISTIANSTED  PTCLDY    81  75  83 NE6       30.01F                  
$$

HOURLY WEATHER ROUNDUP FOR THE NEWS MEDIA
  
CITY           SKY/WX    TMP DP  RH WIND       PRES   REMARKS
ORLANDO        FAIR      79  75  87 E5        30.10F                  
NEW YORK       MOCLDY    76  75  97 W7        30.02R                  
NEWARK         FAIR      76  70  82 SW5       30.02R                  
CHICAGO        FAIR      75  71  87 E3        30.01S                  
HARTFORD       FAIR      68  66  93 SW5       29.98R FOG              
BOSTON         FAIR      77  67  71 W7        29.97R                  
DALLAS         PTCLDY    90  69  50 S6        29.98F HX  94           
PHILADELPHIA   MOCLDY    80  73  79 CALM      30.03S                  
LOS ANGELES    PTCLDY    69  61  75 SW5       29.91S                  
WASHINGTON DC  CLOUDY    73  70  90 W3        30.05R